Regional Weather Roundup
Issued by NWS

Home | Current Version | Previous Version | Graphics & Text | Print | Product List | Glossary On
Versions: 1 2 3 4 5 6 7 8 9 10 11 12 13 14 15 16 17 18 19 20 21 22 23 24 25 26 27 28 29 30 31 32 33 34 35 36 37 38 39 40 41 42 43 44 45 46 47 48 49 50
447
ASUS43 KDTX 110901
RWRMI
MICHIGAN HOURLY REGIONAL WEATHER ROUNDUP
NATIONAL WEATHER SERVICE DETROIT/PONTIAC MI
400 AM EST MON DEC 11 2017

NOTE: "FAIR" INDICATES FEW OR NO CLOUDS BELOW 12,000 FEET WITH NO
SIGNIFICANT WEATHER AND/OR OBSTRUCTION TO VISIBILITY.

MIZ047>049-052>055-059>063-066>070-074>076-081>083-111000-
SOUTHEAST LOWER MICHIGAN

CITY           SKY/WX    TMP DP  RH WIND       PRES   REMARKS
ADRIAN         CLOUDY    24  20  84 W3        30.05R
ALMA           CLOUDY    20  13  73 CALM      30.04S
ANN ARBOR      CLOUDY    24  18  77 N3        30.02R
BAD AXE        CLOUDY    15   7  72 NW3       30.04R
CARO           CLOUDY    14   9  81 CALM      30.04R
DETROIT CITY   CLOUDY    26  19  74 N8        30.03R WCI  18
DETROIT        CLOUDY    26  19  74 NW8       30.04R WCI  18
FLINT          CLOUDY    20  15  81 N5        30.04R WCI  13
GROSSE ILE     CLOUDY    26  20  80 NW5       30.03R WCI  20
HILLSDALE      CLOUDY    27  21  80 CALM      30.00S
HOWELL         CLOUDY    22  18  85 N5        30.03R WCI  16

CITY           SKY/WX    TMP DP  RH WIND       PRES   REMARKS
JACKSON        CLOUDY    26  19  74 NW5       30.02R WCI  20
LAMBERTVILLE   PTCLDY    17  15  92 CALM      30.04R
LANSING        CLOUDY    23  15  71 NE5       30.04R WCI  17
LAPEER         CLOUDY    19  13  77 N7        30.03R WCI  10
MASON          CLOUDY    25  18  74 N3        30.03R
MONROE         CLOUDY    21  17  85 CALM      30.03S
MT. CLEMENS    MOCLDY    24  18  79 NW6       30.00S WCI  16
PONTIAC        CLOUDY    21  17  84 NW7       30.00R WCI  12
PORT HOPE        N/A     20  10  65 W14G20    30.01R WCI   7
PORT HURON     PTCLDY    21  14  73 NW5       30.02R WCI  15
TRI CITIES     PTCLDY    16  13  88 CALM      30.05R
MIDLAND        CLOUDY    18  15  86 CALM      30.04S
TROY           PTCLDY    25  18  74 NW6       30.04R WCI  18
SAGINAW HB     PTCLDY    14  10  85 CALM      30.04S
$$
MIZ043>046-050>051-056>058-064>065-071>073-077>080-111000-
SOUTHWEST LOWER MICHIGAN

CITY           SKY/WX    TMP DP  RH WIND       PRES   REMARKS
BATTLE CREEK   CLOUDY    27  22  81 CALM      30.02S
BENTON HARBOR  CLOUDY    28  20  71 SW6       30.02F WCI  22
BIG RAPIDS     CLOUDY    20  14  78 CALM      30.00F
COLDWATER      CLOUDY    27  23  85 CALM      30.02S
HOLLAND        CLOUDY    26  19  74 E6        30.02F WCI  19
GRAND RAPIDS   CLOUDY    25  21  85 SE3       30.01F
IONIA          CLOUDY    24  18  77 E3        30.02S
KALAMAZOO      CLOUDY    28  22  78 E3        30.01F
LUDINGTON      CLOUDY    23  16  73 SE5       30.00F WCI  17
MARSHALL       CLOUDY    25  22  88 CALM      30.01F
MOUNT PLEASANT CLOUDY    13  10  88 CALM      30.01F
MUSKEGON       CLOUDY    25  20  81 E5        30.02F WCI  19
SOUTH HAVEN    CLOUDY    32  20  62 CALM      30.01F
$$
MIZ016>042-111000-
NORTHERN LOWER MICHIGAN

CITY           SKY/WX    TMP DP  RH WIND       PRES   REMARKS
ALPENA         CLOUDY    17   8  67 W5        30.02R WCI  10
BEAVER ISLAND  CLOUDY    20  11  68 W3        29.98F
BELLAIRE       FLURRIES  18  15  88 CALM      30.00F
CADILLAC       CLOUDY    17  12  80 CALM      29.95F
CHARLEVOIX     CLOUDY    23  13  68 NW6       30.01F WCI  15
FRANKFORT      CLOUDY    23  14  67 CALM      30.00F
GAYLORD        CLOUDY    13   8  81 SW3       29.95F
GRAYLING       FLURRIES  16   9  74 CALM      29.98F
HARBOR SPRINGS CLOUDY    18   8  63 N3        29.98F
HOUGHTON LAKE  CLOUDY    17   9  70 W5        29.99F WCI  10
MANISTEE       CLOUDY    22  13  68 NE5       30.00F WCI  16
OSCODA         CLOUDY    11   5  75 W3        30.04R
PELLSTON       CLOUDY    15  10  80 CALM      29.99F
ROGERS CITY    LGT SNOW  17  10  76 W6        30.01F WCI   8
TRAVERSE CITY  CLOUDY    22  12  65 W3        29.99F
$$
MIZ007>008-015-111000-
EASTERN UPPER MICHIGAN

CITY           SKY/WX    TMP DP  RH WIND       PRES   REMARKS
KINROSS        CLOUDY     6   2  83 SE5       29.99F WCI  -3
MACKINAC ISLAN CLOUDY    18   9  69 N6        29.98F WCI   9
NEWBERRY       FLURRIES  13  12  96 SE6       29.95F WCI   4
S. S. MARIE    MIX PCPN   5  -3  69 E5        29.99F WCI  -4
MUNISING         N/A     15  10  80 SW8       29.95F WCI   4
$$
MIZ004>006-011>014-085-111000-
CENTRAL UPPER MICHIGAN

CITY           SKY/WX    TMP DP  RH WIND       PRES   REMARKS
MANISTIQUE     CLOUDY    14   4  63 W5        29.98S WCI   7
ESCANABA       MOCLDY     6   3  87 CALM      30.00F
MENOMINEE      MOCLDY    14   8  77 CALM      30.00F
$$
MIZ001>003-009>011-084-111000-
WESTERN UPPER MICHIGAN

CITY           SKY/WX    TMP DP  RH WIND       PRES   REMARKS
IRON MOUNTAIN  CLOUDY    13   7  77 SE5       29.93F WCI   5
HOUGHTON       CLOUDY    13   6  74 S9        29.85F WCI   1
COPPER HARBOR    N/A     13   7  77 SW5       29.89F WCI   5
IRONWOOD       CLOUDY    15  10  80 S8        29.84F WCI   4
$$

ABBREVIATIONS USED IN REMARKS
   TC - TEMPERATURE IN CELSIUS
  WCI - WIND CHILL INDEX
   HX - HEAT INDEX
  VSB - VISIBILITY





USA.gov is the U.S. government's official web portal to all federal, state and local government web resources and services.